Notices

What's New in latest Release from April 7th, 2021:

- Updated Glossary, including Speed of Maximum Gust, and Total Hourly Precipitation

- Updated national and regional climate services offices contacts and prices information

- Addition of station inventory lists for 1981-2010, 1971-2000, and 1961-1990 Normals.

If you haven't already, please take our survey and provide feedback about our website: https://eccc.sondage-survey.ca/f/LanguageSelection.aspx?s=442ca660-fcf1-47c0-95a9-59707d6fd709

Hourly Data Report for April 17, 2016

MIRAMICHI RCS
NEW BRUNSWICK

47°00'34.000" N
65°27'54.000" W
33.00 m
8100989
71744
ACQ

Download Data

Hourly Data (April 2016)
Hourly Data Report for April 17, 2016
TIME
LST
Temp Definition
°C
Dew Point Definition
°C
Rel Hum Definition
%
Precip. Amount Definition
mm

Wind Dir Definition
10's deg

Wind Spd Definition
km/h
Visibility Definition
km
Stn Press Definition
kPa
Hmdx Definition


Wind Chill Definition


Weather Definition


00:00 -2.6 -4.2 89 0.0 28 1   102.94   -3 LegendNANA
01:00 -2.9 -4.4 90 0.0 27 4   102.87   -4 LegendNANA
02:00 -3.0 -4.4 90 0.0 23 4   102.79   -5 LegendNANA
03:00 -3.3 -4.5 92 0.0 25 5   102.73   -5 LegendNANA
04:00 -3.7 -5.0 90 0.0 21 6   102.65   -6 LegendNANA
05:00 -3.7 -5.1 90 0.0 21 6   102.60   -6 LegendNANA
06:00 -3.5 -5.3 87 0.0 22 7   102.60   -6 LegendNANA
07:00 -1.2 -4.4 79 0.0 23 10   102.59   -5 LegendNANA
08:00 1.6 -4.0 66 0.0 24 9   102.51     LegendNANA
09:00 6.3 -4.7 45 0.0 25 10   102.43     LegendNANA
10:00 10.2 -4.8 34 0.0 24 13   102.35     LegendNANA
11:00 12.7 -4.8 29 0.0 24 16   102.21     LegendNANA
12:00 15.1 -4.6 25 0.0 23 18   102.09     LegendNANA
13:00 17.2 -2.8 25 0.0 23 20   101.93     LegendNANA
14:00 19.2 -3.0 22 0.0 23 17   101.84     LegendNANA
15:00 20.7 -2.9 20 0.0 23 20   101.68     LegendNANA
16:00 21.1 -3.6 19 0.0 24 21   101.62     LegendNANA
17:00 21.3 -2.9 20 0.0 25 19   101.58     LegendNANA
18:00 20.3 -2.1 22 0.0 26 17   101.61     LegendNANA
19:00 15.4 -0.9 33 0.0 24 8   101.64     LegendNANA
20:00 14.1 -0.3 37 0.0 27 10   101.65     LegendNANA
21:00 14.5 -1.0 34 0.0 36 4   101.71     LegendNANA
22:00 14.4 -0.6 36 0.0 33 10   101.72     LegendNANA
23:00 12.6 -1.8 37 0.0 1 5   101.74     LegendNANA

Notes on Data Quality.

Legend

  • E = Estimated
  • M = Missing
  • NA = Not Available*
  • [empty] = Indicates an unobserved value
Date modified: